Weather History for KSBM - October, 2011

Change the Weather History Date:

Thursday, October 6, 2011

  Actual Average Record
Temperature  
Mean Temperature 58 °F -  
Max Temperature 75 °F 63 °F 90 °F (1963)
Min Temperature 42 °F 45 °F 26 °F (1952)
Degree Days  
Heating Degree Days 8    
Growing Degree Days 8 (Base 50)    
Moisture  
Dew Point 47 °F    
Average Humidity 90    
Maximum Humidity 100    
Minimum Humidity 42    
Precipitation  
Precipitation 0.00 in - - ()
Sea Level Pressure  
Sea Level Pressure 30.24 in    
Wind  
Wind Speed 1 mph (SSE)    
Max Wind Speed 10 mph    
Max Gust Speed -    
Visibility 3 miles    
Events Fog    
Averages and records for this station are not official NWS values.
T = Trace of Precipitation, MM = Missing Value Source: NWS Daily Summary

Daily Weather History Graph

Daily Weather History Graph

Search for Another Location

Airport or City:

Trip Planner

Search our weather history database for the weather conditions in past years. The results will help you decide how hot, cold, wet, or windy it might be!

Date:

Astronomy

Oct. 06, 2011 Rise Set
Actual Time 6:54 AM CDT 6:23 PM CDT
Civil Twilight 6:25 AM CDT 6:52 PM CDT
Nautical Twilight 5:52 AM CDT 7:25 PM CDT
Astronomical Twilight 5:18 AM CDT 7:59 PM CDT
Moon 3:45 PM CDT (10/6) 1:33 AM CDT (10/6)
Length of Visible Light 12h 26m
Length of Day
11h 29m
Waxing Gibbous, 75% of the Moon is Illuminated
Oct 6
Waxing Gibbous
Oct 11
Full
Oct 19
Last Quarter
Oct 26
New
Nov 2
First Quarter

Hourly Weather History & Observations

Time (CDT) Temp. Dew Point Humidity Pressure Visibility Wind Dir Wind Speed Gust Speed Precip Events Conditions
12:53 AM 44.1 °F 43.0 °F 96% 30.23 in 3.0 mi Calm Calm - N/A   Clear
1:14 AM 44.6 °F 42.8 °F 93% 30.23 in 2.0 mi Calm Calm - N/A   Clear
1:31 AM 44.6 °F 42.8 °F 93% 30.23 in 4.0 mi Calm Calm - N/A   Clear
1:46 AM 44.6 °F 44.6 °F 100% 30.23 in 2.0 mi Calm Calm - N/A   Clear
1:53 AM 45.0 °F 44.1 °F 97% 30.23 in 1.5 mi Calm Calm - N/A   Clear
2:11 AM 42.8 °F 42.8 °F 100% 30.23 in 0.2 mi Calm Calm - N/A Fog Fog
2:20 AM 44.6 °F 44.6 °F 100% 30.23 in 0.2 mi Calm Calm - N/A Fog Fog
2:31 AM 44.6 °F 44.6 °F 100% 30.23 in 1.0 mi Calm Calm - N/A   Mist
2:35 AM 44.6 °F 42.8 °F 93% 30.23 in 2.0 mi Calm Calm - N/A   Partly Cloudy
2:51 AM 44.6 °F 42.8 °F 93% 30.23 in 0.8 mi Calm Calm - N/A   Clear
2:53 AM 45.0 °F 44.1 °F 97% 30.24 in 0.5 mi Calm Calm - N/A Fog Fog
3:00 AM 44.6 °F 44.6 °F 100% 30.23 in 0.2 mi Calm Calm - N/A Fog Fog
3:14 AM 44.6 °F 42.8 °F 93% 30.23 in 1.0 mi Calm Calm - N/A   Mist
3:16 AM 42.8 °F 42.8 °F 100% 30.23 in 2.5 mi Calm Calm - N/A   Partly Cloudy
3:26 AM 44.6 °F 44.6 °F 100% 30.23 in 0.2 mi Calm Calm - N/A Fog Fog
3:53 AM 42.1 °F 42.1 °F 100% 30.24 in 0.5 mi Calm Calm - N/A Fog Fog
4:26 AM 44.6 °F 44.6 °F 100% 30.23 in 3.0 mi Calm Calm - N/A   Clear
4:42 AM 44.6 °F 42.8 °F 93% 30.24 in 2.5 mi Calm Calm - N/A   Scattered Clouds
4:47 AM 44.6 °F 44.6 °F 100% 30.24 in 1.5 mi Calm Calm - N/A   Mostly Cloudy
4:53 AM 42.1 °F 42.1 °F 100% 30.25 in 1.2 mi Calm Calm - N/A   Mostly Cloudy
5:03 AM 44.6 °F 42.8 °F 93% 30.24 in 3.0 mi Calm Calm - N/A   Mostly Cloudy
5:13 AM 42.8 °F 42.8 °F 100% 30.24 in 3.0 mi Calm Calm - N/A   Scattered Clouds
5:17 AM 42.8 °F 42.8 °F 100% 30.24 in 1.5 mi Calm Calm - N/A   Scattered Clouds
5:53 AM 43.0 °F 43.0 °F 100% 30.25 in 0.2 mi Calm Calm - N/A Fog Fog
6:30 AM 42.8 °F 42.8 °F 100% 30.25 in 0.5 mi Calm Calm - N/A Fog Fog
6:38 AM 44.6 °F 44.6 °F 100% 30.25 in 0.2 mi Calm Calm - N/A Fog Fog
6:53 AM 43.0 °F 43.0 °F 100% 30.26 in 0.2 mi Calm Calm - N/A Fog Fog
7:53 AM 46.0 °F 46.0 °F 100% 30.27 in 0.2 mi Calm Calm - N/A Fog Fog
8:53 AM 51.1 °F 51.1 °F 100% 30.28 in 0.2 mi Calm Calm - N/A Fog Fog
9:40 AM 55.4 °F 55.4 °F 100% 30.27 in 1.0 mi Calm Calm - N/A   Mist
10:53 AM 66.9 °F 55.9 °F 68% 30.27 in 10.0 mi South 3.5 mph - N/A   Clear
11:53 AM 72.0 °F 57.0 °F 59% 30.25 in 10.0 mi South 4.6 mph - N/A   Clear
12:53 PM 73.0 °F 57.9 °F 59% 30.25 in 10.0 mi SE 5.8 mph - N/A   Clear
1:53 PM 73.9 °F 55.0 °F 52% 30.23 in 10.0 mi SE 9.2 mph - N/A   Clear
2:53 PM 73.9 °F 50.0 °F 43% 30.23 in 10.0 mi South 10.4 mph - N/A   Clear
3:53 PM 73.0 °F 48.9 °F 42% 30.23 in 10.0 mi SSE 6.9 mph - N/A   Clear
4:53 PM 71.1 °F 48.9 °F 45% 30.22 in 10.0 mi SSE 6.9 mph - N/A   Clear
5:53 PM 66.9 °F 50.0 °F 54% 30.22 in 10.0 mi SSE 4.6 mph - N/A   Clear
6:53 PM 63.0 °F 52.0 °F 67% 30.23 in 10.0 mi SSE 5.8 mph - N/A   Clear
8:53 PM 54.0 °F 52.0 °F 93% 30.24 in 3.0 mi Calm Calm - N/A   Clear
9:10 PM 51.8 °F 51.8 °F 100% 30.23 in 2.0 mi Calm Calm - N/A   Clear
9:19 PM 51.8 °F 51.8 °F 100% 30.23 in 1.5 mi Calm Calm - N/A   Clear
9:27 PM 53.6 °F 51.8 °F 94% 30.23 in 3.0 mi Calm Calm - N/A   Clear
9:34 PM 53.6 °F 51.8 °F 94% 30.23 in 1.8 mi Calm Calm - N/A   Clear
9:53 PM 53.1 °F 52.0 °F 96% 30.25 in 1.2 mi Calm Calm - N/A   Clear
10:12 PM 51.8 °F 51.8 °F 100% 30.24 in 0.2 mi Calm Calm - N/A Fog Fog
10:27 PM 53.6 °F 51.8 °F 94% 30.23 in 1.0 mi Calm Calm - N/A   Clear
10:53 PM 52.0 °F 52.0 °F 100% 30.24 in 2.0 mi Calm Calm - N/A   Clear
11:07 PM 53.6 °F 51.8 °F 94% 30.23 in 3.0 mi Calm Calm - N/A   Clear
11:53 PM 51.1 °F 48.9 °F 92% 30.23 in 3.0 mi Calm Calm - N/A   Clear